Regional Weather Roundup
Issued by NWS Wakefield, VA

Home | Current Version | Previous Version | Text Only | Print | Product List | Glossary Off
Versions: 1 2 3 4 5 6 7 8 9 10 11 12 13 14 15 16 17 18 19 20 21 22 23 24 25 26 27 28 29 30 31 32 33 34 35 36 37 38 39 40 41 42 43 44 45 46 47 48 49 50
000 ASUS41 KAKQ 270810 RWRAKQ REGIONAL WEATHER ROUNDUP NATIONAL WEATHER SERVICE WAKEFIELD VA 300 AM EST TUE JAN 27 2015 Note: "fair" indicates few or no clouds below 12,000 feet with no significant weather and/or obstructions to visibility. * = Denotes station may not report precipitation (e.g., rain,snow,etc.), thunder or fog. VAZ042-051-052>054-056-270900- NORTHERN VIRGINIA CITY SKY/WX TMP DP RH WIND PRES REMARKS WASH NATIONAL LGT SNOW 30 24 78 N15 29.75S WCI 19 DULLES CLOUDY 27 22 81 N12 29.75S WCI 17 FORT BELVOIR MIX PCPN 28 24 83 NW6 29.75F QUANTICO LGT RAIN 30 23 75 N15G24 29.76S WCI 19 FREDERICKSBRG* FLURRIES 30 28 89 N7 29.74R STAFFORD* CLOUDY 28 28 99 CALM 29.78S WARRENTON CLOUDY 30 28 92 N7 29.74S CULPEPER* MOCLDY 30 25 80 N9 29.74F MANASSAS* CLOUDY 28 27 93 N9 29.75F LEESBURG* CLOUDY 28 28 100 N10G16 29.76F WCI 19 WINCHESTER CLOUDY 28 23 80 NW6 29.76F FRONT ROYAL* CLOUDY 27 23 86 CALM 29.76S LURAY* CLOUDY 28 28 100 CALM 29.75F $$ VAZ048-049-060>072-079>083-270900- CENTRAL AND SOUTH CENTRAL VIRGINIA CITY SKY/WX TMP DP RH WIND PRES REMARKS RICHMOND CLOUDY 32 27 81 N14G22 29.71S WCI 22 CHESTERFIELD* PTSUNNY 32 16 51 N9 29.72S PETERSBURG* CLOUDY 34 26 73 N9G21 29.71F HANOVER CLOUDY 30 24 78 N8G18 29.73S TAPPAHANNOCK* CLOUDY 30 24 80 NW8 29.71S QUINTON* CLOUDY 30 27 88 NW6 29.71S CHARLOTTSVILLE CLOUDY 32 24 72 NW6 29.71S GORDONSVILLE* CLOUDY 28 24 83 CALM 29.72S ORANGE* MOCLDY 30 27 86 N5 29.74S LOUISA* CLOUDY 28 25 86 N6 29.71S BUMPASS* CLOUDY 30 24 77 N7 29.72S FARMVILLE* CLOUDY 32 32 100 CALM 29.72S CREWE* CLOUDY 31 28 86 N5 29.72R FORT PICKETT* PTSUNNY 31 28 90 N5 29.71R CHASE CITY* CLOUDY 35 35 100 CALM 29.71S CLARKSVILLE* CLOUDY 34 32 93 N6 29.72R SOUTH HILL* CLOUDY 32 28 85 N8 29.76S LAWRENCEVILLE* CLOUDY 32 28 85 N8 29.71R EMPORIA* CLOUDY 32 28 86 NW12G18 29.72S WCI 23 $$ VAZ088>098-270900- SOUTHEAST VIRGINIA CITY SKY/WX TMP DP RH WIND PRES REMARKS NORFOLK LGT SNOW 33 29 85 N12G22 29.67R WCI 24 VIRGINIA BEACH LGT SNOW 34 31 88 NW16 29.65R FOG WCI 24 NORFOLK NAVAL LGT SNOW 34 29 82 NW15 29.69R WCI 24 WEST POINT* CLOUDY 32 28 83 NW5 29.72S SALUDA* CLOUDY 29 25 85 NW13G21 29.69R WCI 19 NEWPORT NEWS LGT RAIN 33 26 75 N14G26 29.69R WCI 23 LANGLEY AFB LGT SNOW 31 28 88 NW9G20 29.68R FOG FORT EUSTIS DRIZZLE 31 30 97 N8G20 29.67S WILLIAMSBURG* N/A 34 28 80 N8G21 29.70S HR EXEC AP* CLOUDY 32 28 86 N9G18 29.70R FRANKLIN* CLOUDY 31 28 86 NW8 29.70S WAKEFIELD MOCLDY 31 26 82 N7 29.70S $$ VAZ020-022-025-037-045-270900- WEST CENTRAL AND SOUTHWEST VIRGINIA CITY SKY/WX TMP DP RH WIND PRES REMARKS STAUNTON* LGT SNOW 28 26 89 CALM 29.74S WAYNESBORO* CLOUDY 27 26 94 N5 29.71S HOT SPRINGS VA MOCLDY 17 17 100 NW14 29.57S WCI 3 LYNCHBURG MOCLDY 32 22 66 VRB5 29.72R DANVILLE CLOUDY 35 23 61 NW15 29.74R SOUTH BOSTON* CLOUDY 33 29 85 NW13 29.73R WCI 24 MARTINSVILLE CLOUDY 30 19 63 NW8 29.76S ROANOKE PTCLDY 28 16 60 NW13 29.77R WCI 17 BLACKSBURG PTCLDY 22 13 68 W13G18 29.76R WCI 10 DUBLIN* MOCLDY 25 17 72 NW13 29.77R WCI 13 MARION* CLOUDY 24 17 73 W14G25 29.77F WCI 12 HILLSVILLE* MOCLDY 22 16 78 NW10 29.70S WCI 11 RICHLANDS* CLOUDY 22 17 80 NW6 29.78S WISE* CLOUDY 25 25 100 NW9 29.79F ABINGDON* CLOUDY 28 20 70 NW14 29.81S WCI 17 $$ MDZ021>025-VAZ099-100-270900- SOUTHERN MARYLAND AND THE DELMARVA PENINSULA CITY SKY/WX TMP DP RH WIND PRES REMARKS PATUXENT RIVER CLOUDY 28 23 81 NW20 29.70S WCI 15 BAY BRIDGE APT FLURRIES 30 23 74 N15G25 29.72S WCI 19 LEONARDTOWN CLOUDY 28 23 80 NW6 29.72S DOVER CLOUDY 28 25 91 NW13 29.68R WCI 17 GEORGETOWN FLURRIES 29 24 82 N10 29.66R WCI 20 EASTON CLOUDY 30 26 87 N12 29.73S WCI 20 CAMBRIDGE MOCLDY 32 27 80 CALM 29.69R SALISBURY FLURRIES 31 26 82 N13 29.65S WCI 21 OCEAN CITY CLOUDY 30 27 88 N15G22 29.63R WCI 19 WALLOPS ISLAND LGT SNOW 30 28 92 N14G20 29.64S FOG WCI 19 ACCOMACK* CLOUDY 32 28 86 N10G25 29.65R WCI 24 $$ NCZ012>017-030>032-270900- NORTH CENTRAL AND EASTERN NORTH CAROLINA CITY SKY/WX TMP DP RH WIND PRES REMARKS ROANOKE RAPIDS CLOUDY 34 30 86 N16 29.70S WCI 23 RALEIGH LGT SNOW 34 30 85 NW7 29.72R FOG ELIZABETH CITY LGT RAIN 35 31 85 NW15 29.66R AHOSKIE* CLOUDY 34 30 85 N7G16 29.70R EDENTON* DRIZZLE 34 32 92 N15 29.66S WCI 24 CURRITUCK* LGT SNOW 34 32 91 NW9 29.66R KILL DEVIL HLS LGT RAIN 35 34 96 NW9G16 29.62R MANTEO CLOUDY 36 34 93 NW16G24 29.63S CAPE HATTERAS CLOUDY 40 37 89 NW10G23 29.61R TARBORO* CLOUDY 38 32 80 NW10G18 29.71R GOLDSBORO CLOUDY 41 41 97 VRB6 29.67S WASHINGTON CLOUDY 38 34 85 N13 29.67R GREENVILLE CLOUDY 37 32 81 N7G21 29.72R NEW BERN CLOUDY 44 36 73 NW10 29.66R WILMINGTON LGT RAIN 45 40 82 NW13 29.68R $$ VAZ048-270900- ELSEWHERE CITY SKY/WX TMP DP RH WIND PRES REMARKS HARRISBURG PA FLURRIES 26 21 81 NW9 29.76R BALTIMORE FLURRIES 27 22 81 NW8 29.73S ANNAPOLIS CLOUDY 28 24 85 NW15 29.72S WCI 16 ANDREWS AFB MIX PCPN 27 24 87 NW16 29.72F WCI 15 PHILADELPHIA LGT SNOW 26 19 74 N14 29.72R WCI 14 HENDERSON NC LGT SNOW 32 31 96 NW8 29.71S GREENSBORO PTCLDY 30 21 69 NW7 29.73R ROCKY MOUNT CLOUDY 38 31 76 N12 29.70S $$ VAZ100-270900- MARINE STATION/POSITION TIME TEMP WIND PRES WAVE SWELL AIR SEA DIR/SP/G HT/PER HT/PER (UTC) (F) (DEG/KT/KT) (MB) (FT/S) (FT/S) BRANDYWINE LGT 0800 29 38 10/ 23/ 30 1003.9F CAPE MAY NJ 0800 29 39 360/ 4/ 15 1003.2S LEWES DE 0800 31 38 360/ 23/ 25 1004.1R 15NM E FENWICK I 0800 32 41 1001.1R 14/11 OCEAN-CITY-INLET 0800 31 39 360/ 19/ 25 1002.5S WACHAPREAGUE VA 0800 30 42 340/ 5/ 14 1003.6R THOMAS POINT MD 0800 28 36 340/ 16/ 17 1007.2R GOOSES REEF MD 0800 29 37 VRB 19/ 23 1005.1R 3/ 3 COVE POINT MD 0800 27 350/ 23/ 26 1005.5S SOLOMONS ISLAND 0800 39 N/A BISHOPS HEAD MD 0800 30 36 340/ 13/ 19 1004.4F PINEY POINT MD 0800 350/ 19/ 21 N/A POTOMAC MD 0800 29 38 350/ 16/ 19 1004.6R 2/ 3 CAMBRIDGE MD 0800 30 36 330/ 14/ 18 1005.2S LEWISETTA VA 0800 29 38 340/ 15/ 23 1005.7S RAPPAHANNOCK LGT 0800 330/ 26/ 31 1004.8R STINGRAY PT 0800 30 39 340/ 17/ 21 1005.5R 3/ 4 YORK RVR RNG VA 0800 32 340/ 22/ 25 1004.2R YORKTOWN VA 0800 31 41 330/ 13/ 18 1005.0R JAMESTOWN VA 0800 30 41 360/ 8/ 14 N/A 1 DOMINION TERM VA 0800 34 340/ 7/ 13 1004.8S KIPTOPEKE VA 0800 45 350/ 21/ 26 N/A CHES BAY BRIDGE 0800 33 41 310/ 23/ 25 1004.0R CAPE HENRY VA 0800 33 340/ 24/ 28 1002.8R CHESAPEAKE LGHT 0700 34 340/ 28/ 31 1003.0R WILLOUBY STN VA 0800 32 330/ 14/ 16 1005.1F S CRANEY ISL VA 0800 330/ 10/ 15 1004.8R CAPE HENRY BUOY 0800 45 N/A 9/10 3/11 1ST LANDING BUOY 0800 34 42 340/ 21/ 25 1004.0R 5/ 5 CAPE CHARLES BUO 0800 43 N/A 8/11 8/11 OFFSHORE WE BUOY 0800 47 N/A 11/10 10/10 64NM E OF VA BCH 0800 42 52 350/ 29/ 35 999.4R 13/10 8/10 DUCK PIER NC 0800 36 44 330/ 23/ 26 1001.9S 44100 DUCK FRF 0800 45 N/A 10/10 3/11 44056 DUCK FRF 0800 44 N/A 8/10 2/11 OREGON INLET NC 0800 36 47 320/ 17/ 22 1002.6F

USA.gov is the U.S. government's official web portal to all federal, state and local government web resources and services.